NOZ82GE ENGM-LGKF

Flight info

Callsign NOZ82GE
Flight time N/A
Altitude 35000
Route OKSAT L996 KELIN DCT SALLO DCT HDO DCT SASAL DCT LURID DCT RODON DCT LIMJA DCT PITAS UN732 KRK UT321 ASTUS
Aircraft B738/M-SDE2E3FGHIRWXY/LB1

Departure

Time 2026-05-05 16:07
Airport Oslo-Gardermoen International Airport (ENGM)

Arrival

Time N/A
Airport Kefallinia Airport (LGKF)
Time Latitude Longitude Altitude Speed Heading
2026-05-05 15:33 60.19563 11.10158 684 ft 0 kts 286°
2026-05-05 15:54 60.19560 11.10178 678 ft 4 kts 286°
2026-05-05 15:54 60.19553 11.10229 684 ft 4 kts 286°
2026-05-05 15:54 60.19550 11.10247 677 ft 2 kts 286°
2026-05-05 15:57 60.19551 11.10246 681 ft 0 kts 291°
2026-05-05 15:57 60.19558 11.10250 682 ft 2 kts 29°
2026-05-05 15:58 60.19555 11.10293 681 ft 4 kts 101°
2026-05-05 15:58 60.19549 11.10340 681 ft 4 kts 105°
2026-05-05 15:58 60.19542 11.10391 683 ft 4 kts 106°
2026-05-05 15:58 60.19532 11.10451 680 ft 5 kts 108°
2026-05-05 15:59 60.19521 11.10520 679 ft 6 kts 108°
2026-05-05 15:59 60.19508 11.10611 682 ft 8 kts 106°
2026-05-05 15:59 60.19489 11.10742 680 ft 12 kts 106°
2026-05-05 15:59 60.19462 11.10922 681 ft 15 kts 106°
2026-05-05 16:00 60.19436 11.11114 681 ft 14 kts 105°
2026-05-05 16:00 60.19432 11.11143 680 ft 0 kts 105°
2026-05-05 16:00 60.19425 11.11187 682 ft 7 kts 106°
2026-05-05 16:00 60.19394 11.11252 679 ft 7 kts 166°
2026-05-05 16:01 60.19348 11.11241 683 ft 7 kts 195°
2026-05-05 16:01 60.19304 11.11214 678 ft 7 kts 197°
2026-05-05 16:01 60.19247 11.11181 683 ft 10 kts 196°
2026-05-05 16:01 60.19171 11.11137 683 ft 13 kts 196°
2026-05-05 16:02 60.19069 11.11078 679 ft 17 kts 196°
2026-05-05 16:02 60.18953 11.11010 682 ft 17 kts 195°
2026-05-05 16:02 60.18842 11.10946 678 ft 16 kts 195°
2026-05-05 16:02 60.18735 11.10884 682 ft 16 kts 197°
2026-05-05 16:03 60.18632 11.10826 681 ft 15 kts 196°
2026-05-05 16:03 60.18534 11.10767 681 ft 14 kts 196°
2026-05-05 16:03 60.18439 11.10714 680 ft 14 kts 196°
2026-05-05 16:03 60.18348 11.10661 677 ft 13 kts 197°
2026-05-05 16:04 60.18262 11.10610 679 ft 13 kts 196°
2026-05-05 16:04 60.18177 11.10563 679 ft 12 kts 196°
2026-05-05 16:04 60.18094 11.10515 678 ft 13 kts 196°
2026-05-05 16:04 60.18009 11.10465 678 ft 13 kts 197°
2026-05-05 16:05 60.17926 11.10419 677 ft 12 kts 195°
2026-05-05 16:05 60.17840 11.10369 677 ft 13 kts 197°
2026-05-05 16:05 60.17750 11.10315 673 ft 13 kts 196°
2026-05-05 16:05 60.17666 11.10311 675 ft 13 kts 145°
2026-05-05 16:06 60.17632 11.10477 673 ft 13 kts 106°
2026-05-05 16:06 60.17605 11.10649 675 ft 13 kts 104°
2026-05-05 16:06 60.17650 11.10819 679 ft 30 kts 19°
2026-05-05 16:06 60.18091 11.11072 681 ft 101 kts 15°
2026-05-05 16:07 60.18975 11.11585 683 ft 161 kts 15°
2026-05-05 16:07 60.20206 11.12268 854 ft 198 kts 17°
2026-05-05 16:07 60.21462 11.13294 1922 ft 190 kts 27°
2026-05-05 16:07 60.22336 11.15430 2501 ft 217 kts 70°
2026-05-05 16:08 60.22441 11.18628 2754 ft 242 kts 91°
2026-05-05 16:08 60.22439 11.22079 3312 ft 248 kts 85°
2026-05-05 16:08 60.22420 11.25580 3894 ft 255 kts 101°
2026-05-05 16:08 60.21562 11.28702 4418 ft 267 kts 138°
2026-05-05 16:09 60.19911 11.30502 4971 ft 275 kts 162°
2026-05-05 16:09 60.18090 11.31798 5759 ft 279 kts 163°
2026-05-05 16:09 60.16252 11.33094 6622 ft 280 kts 163°
2026-05-05 16:09 60.14412 11.34411 7444 ft 282 kts 162°
2026-05-05 16:10 60.12561 11.35763 8233 ft 285 kts 162°
2026-05-05 16:10 60.10696 11.37147 9037 ft 287 kts 163°
2026-05-05 16:10 60.08804 11.38562 9763 ft 292 kts 163°
2026-05-05 16:10 60.06878 11.40019 10283 ft 304 kts 162°
2026-05-05 16:11 60.04826 11.41573 10463 ft 327 kts 162°
2026-05-05 16:11 59.97995 11.46791 11834 ft 362 kts 162°
2026-05-05 16:12 59.95629 11.48606 12507 ft 367 kts 162°
2026-05-05 16:12 59.90771 11.52322 13744 ft 380 kts 163°
2026-05-05 16:13 59.83303 11.58011 15708 ft 387 kts 165°
2026-05-05 16:13 59.80775 11.59930 16335 ft 390 kts 166°
2026-05-05 16:13 59.78231 11.61856 16945 ft 394 kts 166°
2026-05-05 16:14 59.73087 11.65744 18222 ft 398 kts 168°
2026-05-05 16:14 59.67859 11.69678 19185 ft 406 kts 169°
2026-05-05 16:15 59.62527 11.73679 20069 ft 414 kts 170°
2026-05-05 16:15 59.57121 11.77728 21111 ft 417 kts 171°
2026-05-05 16:16 59.51669 11.81797 22094 ft 421 kts 171°
2026-05-05 16:16 59.46185 11.85873 23013 ft 427 kts 171°
2026-05-05 16:17 59.40560 11.90045 23858 ft 432 kts 171°
2026-05-05 16:17 59.37739 11.92130 24247 ft 433 kts 171°
2026-05-05 16:18 59.32067 11.95248 24944 ft 416 kts 184°
2026-05-05 16:18 59.29223 11.95485 25365 ft 404 kts 193°
2026-05-05 16:18 59.23605 11.94781 26035 ft 407 kts 194°
2026-05-05 16:19 59.20773 11.94431 26350 ft 410 kts 194°
2026-05-05 16:19 59.17914 11.94104 26706 ft 412 kts 193°
2026-05-05 16:19 59.12168 11.93491 27349 ft 416 kts 193°
2026-05-05 16:20 59.06357 11.92885 27992 ft 420 kts 193°
2026-05-05 16:20 59.00486 11.92256 28422 ft 425 kts 193°
2026-05-05 16:21 58.94551 11.91590 29040 ft 429 kts 193°
2026-05-05 16:22 58.85589 11.90596 30029 ft 429 kts 193°
2026-05-05 16:22 58.79603 11.90342 30677 ft 439 kts 184°
2026-05-05 16:23 58.73511 11.92054 31245 ft 442 kts 181°
2026-05-05 16:23 58.70472 11.92951 31554 ft 441 kts 181°
2026-05-05 16:23 58.64406 11.94651 32079 ft 441 kts 181°
2026-05-05 16:24 58.61367 11.95474 32363 ft 440 kts 181°
2026-05-05 16:24 58.58337 11.96290 32644 ft 440 kts 181°
2026-05-05 16:24 58.52277 11.97923 33178 ft 439 kts 181°
2026-05-05 16:25 58.49251 11.98740 33458 ft 439 kts 181°
2026-05-05 16:25 58.43216 12.00367 33958 ft 436 kts 181°
2026-05-05 16:25 58.40213 12.01176 34178 ft 436 kts 181°
2026-05-05 16:26 58.34230 12.02776 34461 ft 438 kts 181°
2026-05-05 16:26 58.28154 12.04400 34857 ft 437 kts 180°
2026-05-05 16:27 58.22096 12.06214 34940 ft 445 kts 176°
2026-05-05 16:27 58.16053 12.08836 34925 ft 445 kts 175°
2026-05-05 16:28 58.10096 12.11561 34929 ft 442 kts 175°
2026-05-05 16:28 58.04099 12.14236 34936 ft 439 kts 175°
2026-05-05 16:29 57.98162 12.16821 34960 ft 437 kts 175°
2026-05-05 16:29 57.92226 12.19377 34949 ft 438 kts 175°
2026-05-05 16:30 57.86320 12.21909 34924 ft 438 kts 175°
2026-05-05 16:30 57.80370 12.24455 34926 ft 439 kts 175°
2026-05-05 16:31 57.74398 12.27002 34943 ft 441 kts 175°
2026-05-05 16:31 57.68398 12.29553 34939 ft 443 kts 175°
2026-05-05 16:32 57.62380 12.32104 34945 ft 444 kts 175°
2026-05-05 16:32 57.56346 12.34654 34939 ft 444 kts 175°
2026-05-05 16:33 57.50311 12.37196 34941 ft 445 kts 175°
2026-05-05 16:33 57.44270 12.39732 34952 ft 445 kts 175°
2026-05-05 16:34 57.38225 12.42259 34948 ft 445 kts 175°
2026-05-05 16:34 57.33203 12.44353 34945 ft 445 kts 175°
2026-05-05 16:35 57.27171 12.46861 34942 ft 443 kts 175°
2026-05-05 16:35 57.21157 12.49353 34942 ft 443 kts 175°
2026-05-05 16:36 57.15152 12.51831 34941 ft 442 kts 175°
2026-05-05 16:36 57.09156 12.54299 34937 ft 441 kts 175°
2026-05-05 16:37 57.03176 12.56751 34950 ft 440 kts 175°
2026-05-05 16:37 56.97210 12.59190 34948 ft 438 kts 174°
2026-05-05 16:38 56.91254 12.61616 34944 ft 438 kts 174°
2026-05-05 16:38 56.85299 12.64033 34940 ft 438 kts 174°
2026-05-05 16:39 56.79346 12.66441 34942 ft 438 kts 174°
2026-05-05 16:39 56.73385 12.68846 34897 ft 439 kts 174°
2026-05-05 16:40 56.67427 12.71242 34933 ft 439 kts 174°
2026-05-05 16:40 56.61466 12.73631 34942 ft 439 kts 174°
2026-05-05 16:41 56.55491 12.76017 34943 ft 440 kts 174°
2026-05-05 16:41 56.49509 12.78399 34944 ft 441 kts 174°
2026-05-05 16:42 56.43508 12.80781 34913 ft 441 kts 174°
2026-05-05 16:42 56.37515 12.83153 34931 ft 441 kts 174°
2026-05-05 16:43 56.31508 12.85522 34936 ft 442 kts 174°
2026-05-05 16:43 56.25496 12.87886 34942 ft 442 kts 174°
2026-05-05 16:44 56.19477 12.90245 34936 ft 443 kts 174°
2026-05-05 16:44 56.13463 12.92595 34929 ft 442 kts 173°
2026-05-05 16:45 56.07455 12.94934 34932 ft 442 kts 173°
2026-05-05 16:45 56.01451 12.97264 34942 ft 441 kts 173°
2026-05-05 16:46 55.95462 12.99582 34940 ft 440 kts 173°
2026-05-05 16:46 55.89474 13.01891 34933 ft 440 kts 173°
2026-05-05 16:47 55.83500 13.04188 34922 ft 439 kts 173°
2026-05-05 16:47 55.77536 13.06474 34924 ft 438 kts 173°
2026-05-05 16:48 55.71585 13.08747 34929 ft 437 kts 173°
2026-05-05 16:48 55.65633 13.11013 34923 ft 437 kts 173°
2026-05-05 16:49 55.59691 13.13269 34914 ft 437 kts 173°
2026-05-05 16:49 55.53747 13.15519 34914 ft 436 kts 173°
2026-05-05 16:50 55.47816 13.17757 34912 ft 436 kts 173°
2026-05-05 16:50 55.41887 13.19987 34913 ft 436 kts 173°
2026-05-05 16:51 55.35958 13.22211 34915 ft 436 kts 173°
2026-05-05 16:51 55.30027 13.24428 34910 ft 436 kts 173°
2026-05-05 16:52 55.24098 13.26638 34911 ft 435 kts 173°
2026-05-05 16:52 55.18169 13.28842 34912 ft 435 kts 173°
2026-05-05 16:53 55.12284 13.31022 34904 ft 435 kts 173°
2026-05-05 16:53 55.06361 13.33211 34911 ft 435 kts 173°
2026-05-05 16:54 55.00443 13.35390 34907 ft 435 kts 174°
2026-05-05 16:54 54.94527 13.37564 34910 ft 435 kts 174°
2026-05-05 16:55 54.88596 13.39579 34909 ft 433 kts 177°
2026-05-05 16:55 54.82649 13.41165 34913 ft 432 kts 178°
2026-05-05 16:56 54.76699 13.42689 34890 ft 432 kts 178°
2026-05-05 16:56 54.70755 13.44246 34906 ft 432 kts 178°
2026-05-05 16:57 54.64813 13.45825 34913 ft 432 kts 178°
2026-05-05 16:57 54.58873 13.47409 34912 ft 432 kts 178°
2026-05-05 16:58 54.52930 13.48991 34912 ft 432 kts 178°
2026-05-05 16:58 54.46993 13.50565 34906 ft 431 kts 179°
2026-05-05 16:59 54.41064 13.52134 34916 ft 431 kts 179°
2026-05-05 16:59 54.35141 13.53695 34916 ft 431 kts 179°
2026-05-05 17:00 54.29225 13.55249 34911 ft 430 kts 179°
2026-05-05 17:00 54.23303 13.56802 34886 ft 430 kts 179°
2026-05-05 17:01 54.17402 13.58346 34905 ft 428 kts 179°
2026-05-05 17:01 54.11529 13.59878 34908 ft 426 kts 179°
2026-05-05 17:02 54.05672 13.61400 34901 ft 425 kts 179°
2026-05-05 17:02 53.99835 13.62912 34903 ft 423 kts 179°
2026-05-05 17:03 53.94022 13.64414 34904 ft 422 kts 179°
2026-05-05 17:03 53.88228 13.65906 34899 ft 421 kts 179°
2026-05-05 17:04 53.82447 13.67391 34901 ft 420 kts 179°
2026-05-05 17:04 53.76670 13.68870 34885 ft 420 kts 179°
2026-05-05 17:05 53.70897 13.70344 34862 ft 420 kts 179°
2026-05-05 17:05 53.65116 13.71815 34891 ft 421 kts 179°
2026-05-05 17:06 53.59298 13.73291 34910 ft 424 kts 179°
2026-05-05 17:06 53.53452 13.74771 34905 ft 426 kts 179°
2026-05-05 17:07 53.47570 13.76257 34899 ft 429 kts 179°
2026-05-05 17:07 53.41654 13.77748 34884 ft 431 kts 178°
2026-05-05 17:08 53.35725 13.79239 34900 ft 432 kts 178°
2026-05-05 17:08 53.29778 13.80730 34891 ft 432 kts 178°
2026-05-05 17:09 53.23836 13.82215 34887 ft 432 kts 178°
2026-05-05 17:09 53.17900 13.83695 34860 ft 431 kts 178°
2026-05-05 17:10 53.11985 13.85166 34869 ft 429 kts 178°
2026-05-05 17:10 53.06087 13.86627 34863 ft 428 kts 178°
2026-05-05 17:11 53.00203 13.88080 34868 ft 427 kts 178°
2026-05-05 17:11 52.94328 13.89527 34873 ft 427 kts 178°
2026-05-05 17:12 52.88458 13.90969 34858 ft 426 kts 178°
2026-05-05 17:12 52.82591 13.92406 34865 ft 426 kts 178°
2026-05-05 17:13 52.76720 13.93840 34866 ft 426 kts 178°
2026-05-05 17:13 52.70847 13.95271 34865 ft 427 kts 178°
2026-05-05 17:14 52.64966 13.96700 34859 ft 427 kts 178°
2026-05-05 17:14 52.59120 13.98117 34856 ft 428 kts 178°
2026-05-05 17:15 52.53228 13.99541 34857 ft 428 kts 178°
2026-05-05 17:15 52.47336 14.00962 34842 ft 428 kts 178°
2026-05-05 17:16 52.41439 14.02379 34829 ft 428 kts 178°
2026-05-05 17:16 52.35544 14.03792 34841 ft 428 kts 177°
2026-05-05 17:17 52.29643 14.05203 34838 ft 428 kts 177°
2026-05-05 17:17 52.23747 14.06609 34844 ft 429 kts 177°
2026-05-05 17:18 52.17843 14.08014 34832 ft 429 kts 177°
2026-05-05 17:18 52.11938 14.09414 34825 ft 428 kts 176°
2026-05-05 17:19 52.06998 14.10583 34833 ft 428 kts 176°
2026-05-05 17:19 52.01096 14.11976 34825 ft 428 kts 177°
2026-05-05 17:20 51.95201 14.13364 34828 ft 428 kts 177°
2026-05-05 17:20 51.89298 14.14750 34812 ft 428 kts 176°
2026-05-05 17:21 51.83402 14.16131 34822 ft 428 kts 176°
2026-05-05 17:22 51.74566 14.18193 34822 ft 428 kts 176°
2026-05-05 17:22 51.68675 14.19563 34818 ft 428 kts 176°
2026-05-05 17:23 51.62778 14.20932 34814 ft 428 kts 176°
2026-05-05 17:23 51.56889 14.22294 34815 ft 427 kts 176°
2026-05-05 17:24 51.51002 14.23653 34810 ft 427 kts 176°
2026-05-05 17:24 51.45117 14.25008 34809 ft 427 kts 176°
2026-05-05 17:25 51.39271 14.26350 34796 ft 427 kts 175°
2026-05-05 17:25 51.33398 14.27695 34807 ft 426 kts 175°
2026-05-05 17:26 51.27538 14.29034 34808 ft 425 kts 175°
2026-05-05 17:26 51.21688 14.30366 34805 ft 425 kts 176°
2026-05-05 17:27 51.15797 14.31705 34797 ft 424 kts 175°
2026-05-05 17:27 51.09997 14.33020 34805 ft 423 kts 175°
2026-05-05 17:28 51.04166 14.34339 34786 ft 423 kts 175°
2026-05-05 17:28 50.98329 14.35655 34796 ft 424 kts 175°
2026-05-05 17:29 50.92498 14.37139 34786 ft 428 kts 169°
2026-05-05 17:29 50.86881 14.40421 34795 ft 432 kts 162°
2026-05-05 17:30 50.81295 14.43994 34781 ft 433 kts 162°
2026-05-05 17:30 50.75692 14.47534 34778 ft 434 kts 162°
2026-05-05 17:31 50.70074 14.51036 34777 ft 435 kts 162°
2026-05-05 17:31 50.64437 14.54523 34763 ft 435 kts 162°
2026-05-05 17:32 50.58800 14.57998 34746 ft 435 kts 162°
2026-05-05 17:32 50.53164 14.61464 34759 ft 435 kts 162°
2026-05-05 17:33 50.47530 14.64921 34758 ft 435 kts 162°
2026-05-05 17:33 50.41892 14.68372 34753 ft 436 kts 162°
2026-05-05 17:34 50.36248 14.71817 34744 ft 436 kts 162°
2026-05-05 17:34 50.30591 14.75261 34761 ft 436 kts 162°
2026-05-05 17:35 50.24935 14.78696 34763 ft 436 kts 162°
2026-05-05 17:35 50.19270 14.82128 34762 ft 437 kts 162°
2026-05-05 17:36 50.13608 14.85549 34753 ft 437 kts 162°
2026-05-05 17:36 50.07943 14.88963 34756 ft 437 kts 162°
2026-05-05 17:37 50.02274 14.92371 34752 ft 437 kts 162°
2026-05-05 17:37 49.96602 14.95772 34742 ft 437 kts 162°
2026-05-05 17:38 49.90969 14.99142 34744 ft 437 kts 162°
2026-05-05 17:38 49.85292 15.02529 34736 ft 437 kts 162°
2026-05-05 17:39 49.79621 15.05904 34739 ft 437 kts 162°
2026-05-05 17:39 49.73955 15.09267 34732 ft 437 kts 162°
2026-05-05 17:40 49.68277 15.12629 34736 ft 436 kts 162°
2026-05-05 17:40 49.62622 15.15969 34730 ft 436 kts 161°
2026-05-05 17:41 49.56949 15.19312 34733 ft 436 kts 161°
2026-05-05 17:41 49.51289 15.22638 34733 ft 435 kts 161°
2026-05-05 17:42 49.45625 15.25959 34728 ft 435 kts 161°
2026-05-05 17:42 49.39966 15.29268 34723 ft 435 kts 161°
2026-05-05 17:43 49.34304 15.32571 34711 ft 435 kts 162°
2026-05-05 17:43 49.28648 15.35862 34718 ft 435 kts 162°
2026-05-05 17:44 49.22990 15.39147 34717 ft 435 kts 162°
2026-05-05 17:44 49.17328 15.42426 34714 ft 435 kts 162°
2026-05-05 17:45 49.11667 15.45696 34705 ft 435 kts 162°
2026-05-05 17:45 49.06000 15.48962 34709 ft 435 kts 162°
2026-05-05 17:46 49.00333 15.52219 34695 ft 436 kts 162°
2026-05-05 17:46 48.94697 15.55451 34698 ft 435 kts 162°
2026-05-05 17:47 48.89029 15.58695 34703 ft 435 kts 162°
2026-05-05 17:47 48.83358 15.61931 34699 ft 435 kts 162°
2026-05-05 17:48 48.77685 15.65160 34693 ft 435 kts 162°
2026-05-05 17:48 48.72017 15.68379 34704 ft 435 kts 162°
2026-05-05 17:49 48.66341 15.71595 34701 ft 436 kts 162°
2026-05-05 17:49 48.60660 15.74805 34692 ft 436 kts 162°
2026-05-05 17:50 48.54990 15.78003 34702 ft 435 kts 162°
2026-05-05 17:50 48.49320 15.81192 34709 ft 434 kts 162°
2026-05-05 17:51 48.43662 15.84367 34708 ft 434 kts 162°
2026-05-05 17:51 48.38005 15.87534 34709 ft 433 kts 162°
2026-05-05 17:52 48.32353 15.90690 34711 ft 433 kts 162°
2026-05-05 17:52 48.26694 15.93843 34712 ft 433 kts 162°
2026-05-05 17:53 48.21039 15.96986 34729 ft 434 kts 162°
2026-05-05 17:53 48.15401 16.00112 34710 ft 435 kts 162°
2026-05-05 17:54 48.09721 16.03255 34738 ft 436 kts 163°
2026-05-05 17:54 48.03986 16.06419 34748 ft 437 kts 162°
2026-05-05 17:55 47.98313 16.09545 34751 ft 438 kts 163°
2026-05-05 17:55 47.92588 16.12686 34747 ft 439 kts 163°
2026-05-05 17:56 47.86846 16.15838 34773 ft 440 kts 163°
2026-05-05 17:56 47.81093 16.18984 34769 ft 441 kts 163°
2026-05-05 17:57 47.75323 16.22130 34788 ft 440 kts 163°
2026-05-05 17:57 47.69617 16.25237 34781 ft 434 kts 163°
2026-05-05 17:58 47.63950 16.28309 34795 ft 433 kts 163°
2026-05-05 17:58 47.58300 16.31378 34808 ft 432 kts 162°
2026-05-05 17:59 47.52649 16.34427 34809 ft 433 kts 163°
2026-05-05 17:59 47.46985 16.37479 34815 ft 434 kts 163°
2026-05-05 18:00 47.41306 16.40530 34831 ft 435 kts 162°
2026-05-05 18:00 47.35603 16.43595 34848 ft 437 kts 163°
2026-05-05 18:01 47.29868 16.46666 34856 ft 439 kts 163°
2026-05-05 18:01 47.24081 16.49522 34861 ft 439 kts 166°
2026-05-05 18:02 47.18207 16.52091 34863 ft 440 kts 166°
2026-05-05 18:02 47.12325 16.54648 34862 ft 441 kts 166°
2026-05-05 18:03 47.06442 16.57240 34870 ft 441 kts 166°
2026-05-05 18:03 47.00572 16.59843 34876 ft 441 kts 166°
2026-05-05 18:04 46.94711 16.62441 34876 ft 440 kts 166°
2026-05-05 18:04 46.88859 16.65028 34891 ft 439 kts 166°
2026-05-05 18:05 46.83018 16.67603 34892 ft 438 kts 166°
2026-05-05 18:05 46.77222 16.70153 34894 ft 438 kts 166°
2026-05-05 18:06 46.71393 16.72711 34914 ft 437 kts 166°
2026-05-05 18:06 46.65563 16.75263 34916 ft 437 kts 166°
2026-05-05 18:07 46.60676 16.77399 34922 ft 438 kts 166°
2026-05-05 18:07 46.54842 16.79943 34912 ft 438 kts 166°
2026-05-05 18:08 46.49038 16.82469 34930 ft 438 kts 166°
2026-05-05 18:08 46.43189 16.85008 34933 ft 439 kts 166°
2026-05-05 18:09 46.37330 16.87545 34940 ft 440 kts 166°
2026-05-05 18:09 46.31452 16.90086 34922 ft 441 kts 167°
2026-05-05 18:10 46.25556 16.92628 34945 ft 443 kts 167°
2026-05-05 18:10 46.19638 16.95174 34954 ft 445 kts 167°
2026-05-05 18:11 46.13702 16.97723 34957 ft 446 kts 166°
2026-05-05 18:11 46.07738 17.00277 34938 ft 447 kts 167°
2026-05-05 18:12 46.01768 17.02829 34959 ft 448 kts 167°
2026-05-05 18:12 45.95778 17.05384 34957 ft 449 kts 167°
2026-05-05 18:13 45.89785 17.07933 34960 ft 450 kts 167°
2026-05-05 18:13 45.83775 17.10484 34960 ft 450 kts 167°
2026-05-05 18:14 45.77765 17.13030 34961 ft 451 kts 167°
2026-05-05 18:14 45.71743 17.15575 34968 ft 451 kts 167°
2026-05-05 18:15 45.65739 17.18107 34961 ft 451 kts 167°
2026-05-05 18:15 45.59717 17.20640 34974 ft 451 kts 167°